Time,TemperatureF,DewpointF,PressureIn,WindDirection,WindDirectionDegrees,WindSpeedMPH,WindSpeedGustMPH,Humidity,HourlyPrecipIn,Conditions,Clouds,dailyrainin,SoftwareType,DateUTC
2013-07-06 00:02:00,74.0,64.0,29.93,South,178,7.0,14.0,71,0.00,,,0.00,,2013-07-06 05:02:00,
2013-07-06 00:12:00,74.0,64.0,29.93,South,178,7.0,14.0,71,0.00,,,0.00,,2013-07-06 05:12:00,
2013-07-06 00:22:00,73.0,64.0,29.93,South,185,7.0,9.0,74,0.00,,,0.00,,2013-07-06 05:22:00,
2013-07-06 00:33:00,72.0,64.0,29.94,South,190,6.0,10.0,76,0.00,,,0.00,,2013-07-06 05:33:00,
2013-07-06 00:42:00,72.0,64.0,29.94,South,190,6.0,10.0,76,0.00,,,0.00,,2013-07-06 05:42:00,
2013-07-06 00:53:00,72.0,64.0,29.94,South,186,5.0,9.0,77,0.00,,,0.00,,2013-07-06 05:53:00,
2013-07-06 01:02:00,71.0,64.0,29.94,South,186,5.0,9.0,78,0.00,,,0.00,,2013-07-06 06:02:00,
2013-07-06 01:12:00,71.0,64.0,29.94,South,186,5.0,9.0,78,0.00,,,0.00,,2013-07-06 06:12:00,
2013-07-06 01:22:00,71.0,65.0,29.94,South,183,7.0,9.0,81,0.00,,,0.00,,2013-07-06 06:22:00,
2013-07-06 01:34:00,71.0,65.0,29.94,South,180,6.0,11.0,80,0.00,,,0.00,,2013-07-06 06:34:00,
2013-07-06 01:43:00,71.0,65.0,29.94,South,180,6.0,11.0,80,0.00,,,0.00,,2013-07-06 06:43:00,
2013-07-06 01:53:00,71.0,65.0,29.93,South,184,6.0,10.0,81,0.00,,,0.00,,2013-07-06 06:53:00,
2013-07-06 02:02:00,71.0,65.0,29.93,South,184,6.0,10.0,81,0.00,,,0.00,,2013-07-06 07:02:00,
2013-07-06 02:12:00,71.0,65.0,29.93,South,184,6.0,10.0,81,0.00,,,0.00,,2013-07-06 07:12:00,
2013-07-06 02:22:00,71.0,65.0,29.93,South,184,6.0,10.0,81,0.00,,,0.00,,2013-07-06 07:22:00,
2013-07-06 02:33:00,71.0,65.0,29.93,South,180,8.0,14.0,82,0.00,,,0.00,,2013-07-06 07:33:00,
2013-07-06 02:44:00,71.0,65.0,29.93,South,180,8.0,14.0,82,0.00,,,0.00,,2013-07-06 07:44:00,
2013-07-06 02:52:00,70.0,64.0,29.93,South,185,8.0,13.0,82,0.00,,,0.00,,2013-07-06 07:52:00,
2013-07-06 03:02:00,70.0,65.0,29.93,South,191,8.0,12.0,83,0.00,,,0.00,,2013-07-06 08:02:00,
2013-07-06 03:12:00,70.0,65.0,29.93,South,191,8.0,12.0,83,0.00,,,0.00,,2013-07-06 08:12:00,
2013-07-06 03:21:00,70.0,65.0,29.93,South,191,7.0,12.0,84,0.00,,,0.00,,2013-07-06 08:21:00,
2013-07-06 03:34:00,70.0,65.0,29.93,South,191,7.0,12.0,84,0.00,,,0.00,,2013-07-06 08:34:00,
2013-07-06 03:43:00,70.0,65.0,29.93,South,191,7.0,12.0,84,0.00,,,0.00,,2013-07-06 08:43:00,
2013-07-06 03:54:00,69.0,64.0,29.93,SSW,192,7.0,10.0,85,0.00,,,0.00,,2013-07-06 08:54:00,
2013-07-06 04:02:00,69.0,65.0,29.93,SSW,195,7.0,10.0,86,0.00,,,0.00,,2013-07-06 09:02:00,
2013-07-06 04:11:00,69.0,65.0,29.93,SSW,195,7.0,10.0,86,0.00,,,0.00,,2013-07-06 09:11:00,
2013-07-06 04:22:00,69.0,65.0,29.92,SSW,192,8.0,11.0,86,0.00,,,0.00,,2013-07-06 09:22:00,
2013-07-06 04:33:00,69.0,65.0,29.92,SSW,192,8.0,11.0,86,0.00,,,0.00,,2013-07-06 09:33:00,
2013-07-06 04:43:00,68.0,64.0,29.92,SSW,192,8.0,9.0,86,0.00,,,0.00,,2013-07-06 09:43:00,
2013-07-06 04:53:00,68.0,64.0,29.92,SSW,192,8.0,9.0,86,0.00,,,0.00,,2013-07-06 09:53:00,
2013-07-06 05:02:00,68.0,64.0,29.92,SSW,192,8.0,9.0,86,0.00,,,0.00,,2013-07-06 10:02:00,
2013-07-06 05:11:00,68.0,64.0,29.92,SSW,192,8.0,9.0,86,0.00,,,0.00,,2013-07-06 10:11:00,
2013-07-06 05:22:00,67.0,63.0,29.92,SSW,192,5.0,7.0,87,0.00,,,0.00,,2013-07-06 10:22:00,
2013-07-06 05:33:00,67.0,63.0,29.92,SSW,192,4.0,5.0,88,0.00,,,0.00,,2013-07-06 10:33:00,
2013-07-06 05:43:00,67.0,63.0,29.92,SSW,192,4.0,5.0,88,0.00,,,0.00,,2013-07-06 10:43:00,
2013-07-06 05:53:00,67.0,63.0,29.92,SSW,192,4.0,5.0,88,0.00,,,0.00,,2013-07-06 10:53:00,
2013-07-06 06:01:00,66.0,63.0,29.93,SSW,192,0.0,0.0,89,0.00,,,0.00,,2013-07-06 11:01:00,
2013-07-06 06:11:00,66.0,63.0,29.93,SSW,192,0.0,0.0,89,0.00,,,0.00,,2013-07-06 11:11:00,
2013-07-06 06:22:00,66.0,63.0,29.93,SSW,192,0.0,0.0,89,0.00,,,0.00,,2013-07-06 11:22:00,
2013-07-06 06:33:00,66.0,63.0,29.94,SSW,192,0.0,0.0,90,0.00,,,0.00,,2013-07-06 11:33:00,
2013-07-06 06:42:00,66.0,63.0,29.94,SSW,192,0.0,0.0,90,0.00,,,0.00,,2013-07-06 11:42:00,
2013-07-06 06:53:00,66.0,63.0,29.94,SSW,192,0.0,0.0,90,0.00,,,0.00,,2013-07-06 11:53:00,
2013-07-06 07:01:00,66.0,63.0,29.94,SSW,192,3.0,5.0,90,0.00,,,0.00,,2013-07-06 12:01:00,
2013-07-06 07:12:00,66.0,63.0,29.94,SSW,192,3.0,5.0,90,0.00,,,0.00,,2013-07-06 12:12:00,
2013-07-06 07:22:00,67.0,64.0,29.95,SSW,192,1.0,6.0,90,0.00,,,0.00,,2013-07-06 12:22:00,
2013-07-06 07:33:00,67.0,64.0,29.95,SSW,192,1.0,6.0,90,0.00,,,0.00,,2013-07-06 12:33:00,
2013-07-06 07:43:00,67.0,64.0,29.95,SSW,192,1.0,6.0,90,0.00,,,0.00,,2013-07-06 12:43:00,
2013-07-06 07:52:00,69.0,65.0,29.96,SSW,200,6.0,9.0,87,0.00,,,0.00,,2013-07-06 12:52:00,
2013-07-06 08:01:00,71.0,66.0,29.96,SSW,199,4.0,9.0,84,0.00,,,0.00,,2013-07-06 13:01:00,
2013-07-06 08:12:00,71.0,66.0,29.96,SSW,199,4.0,9.0,84,0.00,,,0.00,,2013-07-06 13:12:00,
2013-07-06 08:22:00,72.0,66.0,29.96,SSW,205,7.0,9.0,82,0.00,,,0.00,,2013-07-06 13:22:00,
2013-07-06 08:33:00,73.0,66.0,29.96,SW,218,7.0,10.0,79,0.00,,,0.00,,2013-07-06 13:33:00,
2013-07-06 08:43:00,73.0,66.0,29.96,SW,218,7.0,10.0,79,0.00,,,0.00,,2013-07-06 13:43:00,
2013-07-06 08:52:00,75.0,67.0,29.97,SSW,201,6.0,10.0,77,0.00,,,0.00,,2013-07-06 13:52:00,
2013-07-06 09:11:00,75.0,67.0,29.97,SSW,201,6.0,10.0,77,0.00,,,0.00,,2013-07-06 14:11:00,
2013-07-06 09:22:00,77.0,68.0,29.97,SSW,213,5.0,10.0,73,0.00,,,0.00,,2013-07-06 14:22:00,
2013-07-06 09:34:00,77.0,68.0,29.98,SW,218,0.0,6.0,73,0.00,,,0.00,,2013-07-06 14:34:00,
2013-07-06 09:42:00,77.0,68.0,29.98,SW,218,0.0,6.0,73,0.00,,,0.00,,2013-07-06 14:42:00,
2013-07-06 09:53:00,77.0,67.0,29.97,SW,218,5.0,8.0,72,0.00,,,0.00,,2013-07-06 14:53:00,
2013-07-06 10:02:00,79.0,66.0,29.96,SSW,213,8.0,13.0,65,0.00,,,0.00,,2013-07-06 15:02:00,
2013-07-06 10:12:00,79.0,66.0,29.96,SSW,213,8.0,13.0,65,0.00,,,0.00,,2013-07-06 15:12:00,
2013-07-06 10:22:00,79.0,67.0,29.96,SW,223,7.0,10.0,66,0.00,,,0.00,,2013-07-06 15:22:00,
2013-07-06 10:43:00,80.0,67.0,29.96,SSW,213,7.0,12.0,64,0.00,,,0.00,,2013-07-06 15:43:00,
2013-07-06 10:53:00,81.0,68.0,29.96,SW,228,6.0,12.0,64,0.00,,,0.00,,2013-07-06 15:53:00,
2013-07-06 11:07:00,82.0,68.0,29.97,SW,228,7.0,9.0,62,0.00,,,0.00,,2013-07-06 16:07:00,
2013-07-06 11:15:00,82.0,68.0,29.97,SW,228,7.0,9.0,62,0.00,,,0.00,,2013-07-06 16:15:00,
2013-07-06 11:25:00,82.0,68.0,29.97,SW,228,7.0,9.0,62,0.00,,,0.00,,2013-07-06 16:25:00,
2013-07-06 11:43:00,82.0,68.0,29.97,SW,228,7.0,9.0,62,0.00,,,0.00,,2013-07-06 16:43:00,
2013-07-06 11:45:00,83.0,64.0,29.96,West,265,6.0,11.0,53,0.00,,,0.00,,2013-07-06 16:45:00,
2013-07-06 12:10:00,83.0,65.0,29.96,WNW,294,7.0,16.0,54,0.00,,,0.00,,2013-07-06 17:10:00,
2013-07-06 12:23:00,83.0,64.0,29.96,West,265,6.0,11.0,53,0.00,,,0.00,,2013-07-06 17:23:00,
2013-07-06 12:31:00,83.0,64.0,29.96,West,265,6.0,11.0,53,0.00,,,0.00,,2013-07-06 17:31:00,
2013-07-06 12:42:00,83.0,64.0,29.96,West,265,6.0,11.0,53,0.00,,,0.00,,2013-07-06 17:42:00,
2013-07-06 13:07:00,84.0,66.0,29.95,WSW,240,5.0,9.0,55,0.00,,,0.00,,2013-07-06 18:07:00,
2013-07-06 13:33:00,85.0,69.0,29.94,West,265,3.0,7.0,58,0.00,,,0.00,,2013-07-06 18:33:00,
2013-07-06 13:53:00,85.0,67.0,29.94,WSW,247,4.0,8.0,55,0.00,,,0.00,,2013-07-06 18:53:00,
2013-07-06 14:00:00,87.0,64.0,29.91,SW,214,5.0,10.0,46,0.00,,,0.00,,2013-07-06 19:00:00,
2013-07-06 14:08:00,86.0,66.0,29.93,SW,218,5.0,9.0,52,0.00,,,0.00,,2013-07-06 19:08:00,
2013-07-06 14:22:00,87.0,67.0,29.92,SW,218,5.0,13.0,51,0.00,,,0.00,,2013-07-06 19:22:00,
2013-07-06 14:30:00,87.0,64.0,29.91,SW,214,5.0,10.0,46,0.00,,,0.00,,2013-07-06 19:30:00,
2013-07-06 14:45:00,88.0,64.0,29.91,SW,228,7.0,12.0,45,0.00,,,0.00,,2013-07-06 19:45:00,
2013-07-06 14:52:00,87.0,64.0,29.91,SW,214,5.0,10.0,46,0.00,,,0.00,,2013-07-06 19:52:00,
2013-07-06 15:12:00,88.0,64.0,29.91,SW,228,7.0,12.0,45,0.00,,,0.00,,2013-07-06 20:12:00,
2013-07-06 15:31:00,88.0,64.0,29.91,SW,228,7.0,12.0,45,0.00,,,0.00,,2013-07-06 20:31:00,
2013-07-06 16:32:00,90.0,63.0,29.90,WSW,257,7.0,12.0,41,0.00,,,0.00,,2013-07-06 21:32:00,
2013-07-06 16:42:00,90.0,62.0,29.90,SW,218,9.0,13.0,39,0.00,,,0.00,,2013-07-06 21:42:00,
2013-07-06 16:53:00,90.0,62.0,29.90,SW,218,9.0,13.0,39,0.00,,,0.00,,2013-07-06 21:53:00,
2013-07-06 17:08:00,90.0,62.0,29.89,SW,218,4.0,11.0,40,0.00,,,0.00,,2013-07-06 22:08:00,
2013-07-06 17:13:00,90.0,62.0,29.89,SSW,199,10.0,18.0,40,0.00,,,0.00,,2013-07-06 22:13:00,
2013-07-06 17:22:00,90.0,62.0,29.89,SSW,199,10.0,18.0,40,0.00,,,0.00,,2013-07-06 22:22:00,
2013-07-06 17:32:00,90.0,62.0,29.89,SSW,199,10.0,18.0,40,0.00,,,0.00,,2013-07-06 22:32:00,
2013-07-06 17:43:00,90.0,62.0,29.89,SSW,199,10.0,18.0,40,0.00,,,0.00,,2013-07-06 22:43:00,
2013-07-06 17:52:00,90.0,62.0,29.88,SW,223,5.0,9.0,40,0.00,,,0.00,,2013-07-06 22:52:00,
2013-07-06 18:09:00,90.0,62.0,29.88,SW,223,5.0,9.0,40,0.00,,,0.00,,2013-07-06 23:09:00,
2013-07-06 18:32:00,89.0,64.0,29.87,SW,223,7.0,8.0,44,0.00,,,0.00,,2013-07-06 23:32:00,
2013-07-06 18:52:00,88.0,64.0,29.87,SW,223,4.0,7.0,45,0.00,,,0.00,,2013-07-06 23:52:00,
2013-07-06 19:10:00,88.0,66.0,29.88,SW,223,0.0,4.0,48,0.00,,,0.00,,2013-07-07 00:10:00,
2013-07-06 19:31:00,87.0,68.0,29.88,SW,236,2.0,6.0,53,0.00,,,0.00,,2013-07-07 00:31:00,
2013-07-06 19:42:00,87.0,67.0,29.88,SW,223,1.0,5.0,52,0.00,,,0.00,,2013-07-07 00:42:00,
2013-07-06 19:59:00,87.0,67.0,29.88,SW,223,1.0,5.0,52,0.00,,,0.00,,2013-07-07 00:59:00,
2013-07-06 20:08:00,87.0,68.0,29.88,SW,236,2.0,6.0,53,0.00,,,0.00,,2013-07-07 01:08:00,
2013-07-06 21:43:00,77.0,70.0,29.89,WSW,241,0.0,0.0,78,0.00,,,0.00,,2013-07-07 02:43:00,
2013-07-06 21:54:00,77.0,70.0,29.89,WSW,241,0.0,0.0,78,0.00,,,0.00,,2013-07-07 02:54:00,
2013-07-06 22:02:00,77.0,70.0,29.89,WSW,241,0.0,0.0,78,0.00,,,0.00,,2013-07-07 03:02:00,